Weather in Troitskoe

Russia / Lipetsk Oblast     52°29′40″N   39°31′22″E
temp.,
°C
wind,
m/s
gust,
m/s
humid.,
%
clouds,
%
prec.,
mm/h
press.,
hPa
HPBL,
m
6 march, sat
sat600:00−5nw249196 0.0 1015104
03:00−6nw229296 0.0 101650
06:00−7nw2292100 0.0 101627
09:00−6nw2489100 0.0 1017175
12:00−4nw3487100 0.1 1017459
15:00−4nw578698 0.2 1016729
18:00−6nw5108998 0.1 1017484
21:00−9wnw379155 0.1 1018155
7 march, sun
sun700:00−10w498810 0.0 1018210
03:00−10w410886 0.0 1018213
06:00−11wsw512890 0.0 1016286
09:00−7sw8157935 0.0 1013726
12:00−3sw101675100 0.0 10091006
15:00−2sw112075100 0.0 10041344
18:00−2wsw101988100 0.3 10011231
21:00−5nnw51182100 1.8 1002457
8 march, mon
mon800:00−6wsw498695 0.0 1003223
03:00−8wsw5138663 0.0 1003293
06:00−6wsw716800 0.0 1001539
09:00−4w9158333 0.1 10021488
12:00−6w7107913 0.0 1005727
15:00−6w6108350 0.0 1007768
18:00−7w4118554 0.0 1008457
21:00−9w499053 0.0 1011287
9 march, tue
tue900:00−10wnw49920 0.0 1012229
03:00−11wnw36946 0.0 1013158
06:00−12nw249541 0.0 1014123
09:00−11nw249054 0.0 1015214
12:00−9nnw348297 0.0 1016511
15:00−9nnw358298 0.0 1017648
18:00−10nnw3685100 0.0 1018591
21:00−13nw369279 0.0 1021173
10 march, wed
wed1000:00−14nw36930 0.0 1022193
03:00−15nw349539 0.0 1023152
06:00−17nw349429 0.0 1024150
09:00−15wnw348858 0.0 1024240
12:00−12nw2382100 0.0 1025445
15:00−10e1189100 0.3 1024304
18:00−12ene4593100 0.8 1023324
21:00−15ene4794100 0.9 1025293